Вернуться в каталог

COSMOS 2251 DEB

АктивенLEO
NORAD 36531·DEBRIS·🇷🇺 Russia

Запущен Jun 16, 1993 с Plesetsk Cosmodrome

Loading…

Ближайшие Пролёты (ближайшие 24 часа)

TLE

СвежийSource: Space-Track

Эпоха: Sep 14, 2026, 07:03 UTC

1 36531U 93036BCR 26257.29393470  .00004456  00000-0  13798-2 0  9997
2 36531  74.0808 229.5520 0152472 180.6043 179.4952 14.34989141634436

Отслеживайте COSMOS 2251 DEB в реальном времени с AllMySat

Download on the App Store